Weather History for Gaylord, MI

Change the Weather History Date:

Tuesday, September 25, 2012

  Actual Average Record
Temperature  
Mean Temperature 52 °F -  
Max Temperature 64 °F 64 °F 76 °F (1958)
Min Temperature 39 °F 43 °F 28 °F (2000)
Degree Days  
Heating Degree Days 14    
Growing Degree Days 2 (Base 50)    
Moisture  
Dew Point 42 °F    
Average Humidity 76    
Maximum Humidity 97    
Minimum Humidity 50    
Precipitation  
Precipitation 0.00 in - - ()
Sea Level Pressure  
Sea Level Pressure 29.86 in    
Wind  
Wind Speed 2 mph (NE)    
Max Wind Speed 10 mph    
Max Gust Speed 16 mph    
Visibility 10 miles    
Events      
Averages and records for this station are not official NWS values.
T = Trace of Precipitation, MM = Missing Value Source: NWS Daily Summary

Daily Weather History Graph

Daily Weather History Graph

Search for Another Location

Airport:

Trip Planner

Search our weather history database for the weather conditions in past years. The results will help you decide how hot, cold, wet, or windy it might be!

Date:

Astronomy

Sep. 25, 2012 Rise Set
Actual Time 7:30 AM EDT 7:29 PM EDT
Civil Twilight 7:00 AM EDT 7:58 PM EDT
Nautical Twilight 6:26 AM EDT 8:33 PM EDT
Astronomical Twilight 5:51 AM EDT 9:07 PM EDT
Moon 5:03 PM EDT (9/25) 2:39 AM EDT (9/25)
Length of Visible Light 12h 58m
Length of Day
11h 59m
Waxing Gibbous, 80% of the Moon is Illuminated
Sep 25
Waxing Gibbous
Sep 29
Full
Oct 8
Last Quarter
Oct 15
New
Oct 21
First Quarter

Hourly Weather History & Observations

Time (EDT) Temp. Dew Point Humidity Pressure Visibility Wind Dir Wind Speed Gust Speed Precip Events Conditions
12:53 AM 52.0 °F 43.0 °F 71% 29.79 in 10.0 mi Calm Calm - N/A   Partly Cloudy
1:53 AM 48.0 °F 43.0 °F 83% 29.81 in 10.0 mi Calm Calm - N/A   Clear
2:53 AM 44.1 °F 42.1 °F 93% 29.81 in 10.0 mi Calm Calm - N/A   Clear
3:53 AM 41.0 °F 39.9 °F 96% 29.82 in 7.0 mi Calm Calm - N/A   Clear
4:53 AM 39.9 °F 39.0 °F 97% 29.83 in 10.0 mi Calm Calm - N/A   Clear
5:53 AM 41.0 °F 37.9 °F 89% 29.84 in 10.0 mi Calm Calm - N/A   Clear
6:53 AM 39.0 °F 37.0 °F 93% 29.85 in 10.0 mi Calm Calm - N/A   Clear
7:53 AM 41.0 °F 39.9 °F 96% 29.86 in 10.0 mi Calm Calm - N/A   Scattered Clouds
8:53 AM 46.9 °F 44.1 °F 90% 29.87 in 10.0 mi ENE 6.9 mph - N/A   Partly Cloudy
9:53 AM 48.0 °F 43.0 °F 83% 29.89 in 10.0 mi ENE 8.1 mph - N/A   Mostly Cloudy
10:53 AM 52.0 °F 42.1 °F 69% 29.89 in 10.0 mi ENE 6.9 mph - N/A   Mostly Cloudy
11:53 AM 55.0 °F 41.0 °F 59% 29.88 in 10.0 mi Variable 3.5 mph - N/A   Mostly Cloudy
12:53 PM 57.9 °F 43.0 °F 58% 29.86 in 10.0 mi NE 4.6 mph - N/A   Partly Cloudy
1:53 PM 60.1 °F 44.1 °F 55% 29.86 in 10.0 mi ESE 5.8 mph - N/A   Clear
3:53 PM 64.0 °F 45.0 °F 50% 29.81 in 10.0 mi NE 4.6 mph - N/A   Overcast
4:53 PM 64.9 °F 46.0 °F 50% 29.81 in 10.0 mi NNE 4.6 mph - N/A   Scattered Clouds
5:53 PM 59.0 °F 46.0 °F 62% 29.83 in 10.0 mi NNE 9.2 mph 16.1 mph N/A   Mostly Cloudy
6:53 PM 55.9 °F 45.0 °F 67% 29.85 in 10.0 mi NE 10.4 mph - N/A   Overcast
7:53 PM 53.1 °F 44.1 °F 71% 29.87 in 10.0 mi NE 9.2 mph - N/A   Overcast
8:53 PM 51.1 °F 43.0 °F 74% 29.89 in 10.0 mi NE 4.6 mph - N/A   Overcast
9:53 PM 50.0 °F 42.1 °F 74% 29.91 in 10.0 mi Calm Calm - N/A   Overcast
10:53 PM 48.0 °F 41.0 °F 77% 29.92 in 10.0 mi Calm Calm - N/A   Scattered Clouds
11:53 PM 44.1 °F 39.9 °F 85% 29.92 in 10.0 mi Calm Calm - N/A   Clear